Skip Page Navigation
NASA JPL Caltech
NASA Logo - Jet Propulsion Laboratory + View the NASA Portal
+ Center for Near-Earth Object Studies
JPL Home Earth Solar System Stars & Galaxies Technology
JPL Solar System Dynamics
BODIES ORBITS EPHEMERIDES TOOLS PHYSICAL DATA DISCOVERY FAQ SITE MAP
JPL Small-Body Database Browser
Search: [ help ]  
(2019 HE)
Classification: Apollo [NEO]          SPK-ID: 3841509
Ephemeris | Orbit Diagram | Orbital Elements | Mission Design | Physical Parameters | Close-Approach Data ]

[ hide orbit diagram ]

For accurate long-term ephemerides, please instead use our Horizons system.This orbit viewer was implemented using two-body methods, and hence should not be used for determining accurate long-term trajectories (over several years or decades) or planetary encounter circumstances.


[ revert to old Java-based viewer ]

Orbital Elements at Epoch 2459000.5 (2020-May-31.0) TDB
Reference: JPL 3 (heliocentric ecliptic J2000)
 Element Value Uncertainty (1-sigma)   Units 
e .214087107924849 0.00013405  
a 1.095915085952076 0.00016692 au
q .8612937946693836 1.5752e-05 au
i 20.34172445383281 0.010872 deg
node 210.110318024067 1.3064e-05 deg
peri 281.2264753629052 0.019168 deg
M 44.56804340550958 0.11014 deg
tp 2458948.621805569923
(2020-Apr-09.12180557)
0.11635 TDB
period 419.0480121574945
1.15
0.095737
0.0002621
d
yr
n .8590901031758099 0.00019627 deg/d
Q 1.330536377234768 0.00020265 au
  Orbit Determination Parameters
   # obs. used (total)      61  
   data-arc span      3 days  
   first obs. used      2019-04-21  
   last obs. used      2019-04-24  
   planetary ephem.      DE431  
   SB-pert. ephem.      SB431-N16  
   condition code      7  
   norm. resid. RMS      .58707  
   source      ORB  
   producer      Otto Matic  
   solution date      2019-Apr-24 07:01:35  

Additional Information
 Earth MOID = .000898564 au 
 Jupiter MOID = 3.76344 au 
 T_jup = 5.589 
[ hide covariance matrix ]
Orbital Elements at Epoch 2458596.5 (2019-Apr-23.0) TDB
Reference: JPL 3 (heliocentric ecliptic J2000)
 Element Value Uncertainty (1-sigma)   Units 
e .214262928154699 0.00013392  
q .8612769920980226 1.5477e-05 au
tp 2458529.624216734006
(2019-Feb-15.12421673)
0.020537 TDB
node 210.1257516472252 3.1251e-05 deg
peri 281.2391415970014 0.019229 deg
i 20.3671529885052 0.010842 deg
  Orbit Determination Parameters
   # obs. used (total)      61  
   data-arc span      3 days  
   first obs. used      2019-04-21  
   last obs. used      2019-04-24  
   planetary ephem.      DE431  
   SB-pert. ephem.      SB431-N16  
   condition code      7  
   norm. resid. RMS      .58707  
   source      ORB  
   producer      Otto Matic  
   solution date      2019-Apr-24 07:01:35  

Additional Information
 Jupiter MOID = 3.76344 au 
 T_jup = 5.589 
Orbit Covariance (6×6)
  e q tp node peri i
e 1.793395888216182E-8 -2.070009040241003E-9 2.750129638059079E-6 -3.883274860840809E-9 2.574837954778972E-6 1.451941724441388E-6
q -2.070009040241003E-9 2.395415068272263E-10 -3.173012046869405E-7 4.425580702285994E-10 -2.969943656834596E-7 -1.676224849842928E-7
tp 2.750129638059079E-6 -3.173012046869405E-7 .0004217532785931754 -5.966508313681588E-7 .0003948883409224128 .0002226447601564252
node -3.883274860840809E-9 4.425580702285994E-10 -5.966508313681588E-7 9.766101610990985E-10 -5.594565914442982E-7 -3.137166068320797E-7
peri 2.574837954778972E-6 -2.969943656834596E-7 .0003948883409224128 -5.594565914442982E-7 .0003697457577095176 .0002084486729355252
i 1.451941724441388E-6 -1.676224849842928E-7 .0002226447601564252 -3.137166068320797E-7 .0002084486729355252 .0001175554152824761

Ephemeris | Orbit Diagram | Orbital Elements | Mission Design | Physical Parameters | Close-Approach Data ]

Physical Parameter Table
Parameter Symbol Value Units Sigma Reference Notes
absolute magnitude H 26.7   .49134 MPO467574 autocmod 2.6q

